Location: Cieszkowy
(50.3290°N, 20.5336°E)
Time: 23:05:11
(UTC+00:00)

USA 234 - Pass Details

Date: 15 June 2024
Orbit: 1100 x 1107 km, 123.0° (Epoch: 08 July)

Event Time Altitude Azimuth Distance (km) Brightness Sun altitude
Rises 01:36:40 0° 116° (ESE) 3,919 6.4 -6.5°
Reaches altitude 10° 01:39:09 10° 116° (ESE) 2,962 5.7 -6.2°
Maximum altitude 01:45:42 86° 29° (NNE) 1,113 3.4 -5.5°
Drops below altitude 10° 01:52:17 10° 302° (WNW) 2,967 5.4 -4.8°
Sets 01:54:46 0° 302° (WNW) 3,926 6.0 -4.5°
